Location: *
(49.1466°N, 1.6216°E)
Time: 05:27:36
(UTC+00:00)

Cosmos 1821 Rocket - Pass Details

Date: 25 September 2023
Orbit: 944 x 1004 km, 82.9° (Epoch: 10 December)

Event Time Altitude Azimuth Distance (km) Brightness Sun altitude
Rises 19:23:47 0° 350° (N) 3,667 7.4 -16.6°
Reaches altitude 10° 19:26:16 10° 351° (N) 2,724 6.7 -17.0°
Maximum altitude 19:32:33 90° 72° (ENE) 989 4.0 -18.0°
Drops below altitude 10° 19:38:52 10° 173° (S) 2,747 6.1 -18.9°
Enters shadow 19:40:33 - 173° (S) 3,381 6.5 -19.2°
